Current Weather Conditions: station 62143

sailwx.info

Wind from 200 at 13 knots

Wave height 2.6 meters (8 feet), 7 second period

Air temperature 5.9° C
Visibility: greater than 10.8 NM
Dewpoint 2.8° C

Last reported at 2020-Feb-19 18:00 UTC.
Time now 2020-Feb-19 19:59 UTC

Location: N 57°42' E 001°48'.
View on Google Maps.

See reports from other nearby stations

  
Tides and Currents Weather Stations Pressure Air Temp Water Temp Dewpoint Dewpoint Depression Visibility Wind Speed Wind Dir Waves Ship Positions
date/time (UTC)wind fromknots sea level pressurealtimeterstation pressurevisibilityair tempwater tempwave heightnotes
2020-Feb-19 18:00 200 13 10.8 5.9 2.6
2020-Feb-19 17:00 220 6 10.8 6.0 2.8
2020-Feb-19 16:00 240 18 27.0 6.1 2.9
2020-Feb-19 14:00 270 26 10.8 6.1 3.4
2020-Feb-19 13:00 270 25 5.4 6.5 3.6
2020-Feb-19 12:00 300 18 10.8 6.6 3.6
2020-Feb-19 11:00 300 14 10.8 6.8 4.0
2020-Feb-19 10:00 310 9 5.4 6.8 3.8
2020-Feb-19 09:00 310 12 5.4 6.6 4.2
2020-Feb-19 08:00 310 12 5.4 6.5 3.6
2020-Feb-19 07:00 300 22 5.4 6.7 3.2
2020-Feb-19 06:00 290 21 10.8 6.6 2.8
2020-Feb-19 05:00 280 18 5.4 5.9 2.6
2020-Feb-19 04:00 290 12 5.4 4.5 2.7
2020-Feb-19 03:00 270 20 27.0 5.4 2.6
2020-Feb-19 02:00 280 24 27.0 4.9 2.8
2020-Feb-19 01:00 290 13 27.0 5.4 2.3
2020-Feb-19 00:00 290 14 27.0 5.3 2.6
2020-Feb-18 23:00 310 9 27.0 5.6 2.7
2020-Feb-18 22:00 270 17 27.0 6.1 3.0
2020-Feb-18 21:00 250 20 27.0 6.1 2.9
2020-Feb-18 20:00 250 19 27.0 6.2 3.1
2020-Feb-18 19:00 250 20 27.0 6.0 3.2
2020-Feb-18 18:00 260 21 27.0 6.0 3.3
2020-Feb-18 17:00 250 20 27.0 5.9 3.9
2020-Feb-18 16:00 260 24 27.0 5.9 3.6
2020-Feb-18 15:00 240 26 10.8 6.2 3.7
2020-Feb-18 14:00 240 28 27.0 6.1 3.9
2020-Feb-18 13:00 240 27 10.8 6.2 4.0
2020-Feb-18 12:00 240 28 10.8 6.0 4.1
2020-Feb-18 11:00 250 27 10.8 5.9 3.8
2020-Feb-18 10:00 250 27 10.8 6.0 4.1
2020-Feb-18 09:00 250 27 10.8 5.8 3.7
2020-Feb-18 08:00 250 27 10.8 6.0 4.1
2020-Feb-18 07:00 260 28 10.8 6.1 3.9
2020-Feb-18 06:00 250 29 10.8 6.0 3.8
2020-Feb-18 05:00 260 29 10.8 6.3 3.6
2020-Feb-18 04:00 260 27 10.8 6.4 3.9
2020-Feb-18 03:00 260 28 10.8 6.6 3.8
2020-Feb-18 02:00 270 28 10.8 6.9 4.0
2020-Feb-18 01:00 270 27 10.8 6.8 4.1
2020-Feb-18 00:00 260 27 10.8 6.8 4.0
2020-Feb-17 23:00 260 27 10.8 6.8 4.0
2020-Feb-17 22:00 250 27 10.8 6.9 4.2
2020-Feb-17 21:00 250 32 10.8 7.0 4.5
2020-Feb-17 20:00 250 29 10.8 7.2 4.3
2020-Feb-17 19:00 240 29 10.8 7.6 4.3